Weather History for Atlanta Fulton, GA

Change the Weather History Date:

Thursday, January 17, 2013

  Actual Average Record
Temperature  
Mean Temperature 44 °F 43 °F  
Max Temperature 52 °F 53 °F 64 °F (2002)
Min Temperature 37 °F 33 °F 12 °F (1997)
Degree Days  
Heating Degree Days 20 22  
Month to date heating degree days 374  
Since 1 July heating degree days 1511  
Moisture  
Dew Point 43 °F    
Average Humidity 92    
Maximum Humidity 100    
Minimum Humidity 79    
Precipitation  
Precipitation 0.61 in 0.14 in 1.25 in (2006)
Month to date precipitation 1.88  
Year to date precipitation 1.88  
Snow  
Snow 0.00 in - - ()
Month to date snowfall  
Since 1 July snowfall  
Snow Depth -    
Sea Level Pressure  
Sea Level Pressure 29.91 in    
Wind  
Wind Speed 4 mph (West)    
Max Wind Speed 17 mph    
Max Gust Speed 29 mph    
Visibility 6 miles    
Events Rain    
T = Trace of Precipitation, MM = Missing Value Source: NWS Daily Summary

Daily Weather History Graph

Daily Weather History Graph

Search for Another Location

Airport:

Trip Planner

Search our weather history database for the weather conditions in past years. The results will help you decide how hot, cold, wet, or windy it might be!

Date:

Astronomy

Jan. 17, 2013 Rise Set
Actual Time 7:42 AM EST 5:54 PM EST
Civil Twilight 7:15 AM EST 6:21 PM EST
Nautical Twilight 6:44 AM EST 6:52 PM EST
Astronomical Twilight 6:14 AM EST 7:22 PM EST
Moon 11:09 AM EST (1/17) No Moon Set
Length of Visible Light 11h 06m
Length of Day
10h 12m
Waxing Crescent, 37% of the Moon is Illuminated
Jan 17
Waxing Crescent
Jan 18
First Quarter
Jan 26
Full
Feb 3
Last Quarter
Feb 10
New

Hourly Weather History & Observations

Time (EST) Temp. Windchill Dew Point Humidity Pressure Visibility Wind Dir Wind Speed Gust Speed Precip Events Conditions
12:19 AM 51.8 °F - 51.8 °F 100% 29.96 in 7.0 mi Calm Calm - 0.01 in Rain Light Rain
12:28 AM 51.8 °F - 51.8 °F 100% 29.96 in 8.0 mi Calm Calm - 0.02 in Rain Light Rain
12:53 AM 52.0 °F - 51.1 °F 97% 29.95 in 8.0 mi Calm Calm - 0.04 in Rain Light Rain
1:29 AM 51.8 °F - 51.8 °F 100% 29.96 in 4.0 mi Calm Calm - 0.05 in Rain Light Rain
1:53 AM 52.0 °F - 51.1 °F 97% 29.94 in 4.0 mi Calm Calm - 0.08 in Rain Light Rain
2:53 AM 52.0 °F - 51.1 °F 97% 29.93 in 10.0 mi Calm Calm - 0.04 in Rain Light Rain
3:53 AM 50.0 °F - 48.9 °F 96% 29.90 in 10.0 mi Calm Calm - 0.01 in Rain Light Rain
4:53 AM 50.0 °F - 48.9 °F 96% 29.89 in 8.0 mi Calm Calm - 0.03 in Rain Light Rain
5:53 AM 50.0 °F - 48.9 °F 96% 29.86 in 10.0 mi NE 3.5 mph - 0.02 in Rain Light Rain
6:53 AM 50.0 °F - 48.9 °F 96% 29.85 in 9.0 mi Calm Calm - 0.02 in Rain Light Rain
7:18 AM 50.0 °F - 48.2 °F 94% 29.85 in 3.0 mi NW 3.5 mph - 0.00 in Rain Light Rain
7:48 AM 48.2 °F - 48.2 °F 100% 29.84 in 3.0 mi NW 4.6 mph - 0.02 in Rain Light Rain
7:53 AM 48.9 °F - 48.0 °F 97% 29.84 in 3.0 mi NW 4.6 mph - 0.02 in Rain Light Rain
8:29 AM 48.2 °F - 46.4 °F 93% 29.84 in 2.0 mi NNW 4.6 mph - 0.06 in Rain Rain
8:53 AM 48.0 °F - 46.9 °F 96% 29.82 in 2.0 mi NNW 4.6 mph - 0.09 in Rain Rain
8:58 AM 48.2 °F - 46.4 °F 93% 29.84 in 3.0 mi WNW 5.8 mph - 0.01 in Rain Light Rain
9:53 AM 48.0 °F - 46.9 °F 96% 29.84 in 3.0 mi West 3.5 mph - 0.15 in Rain Rain
10:53 AM 48.0 °F - 46.0 °F 93% 29.82 in 5.0 mi Calm Calm - 0.03 in   Overcast
11:02 AM 48.2 °F - 46.4 °F 93% 29.82 in 5.0 mi Calm Calm - N/A   Overcast
11:43 AM 48.2 °F - 48.2 °F 100% 29.80 in 2.0 mi SSW 5.8 mph - N/A   Overcast
11:53 AM 50.0 °F - 48.0 °F 93% 29.79 in 2.0 mi SSW 6.9 mph - N/A   Overcast
12:53 PM 45.0 °F 37.6 °F 43.0 °F 93% 29.78 in 2.0 mi SSW 17.3 mph 25.3 mph 0.00 in Rain Light Rain
1:06 PM 44.6 °F 37.8 °F 42.8 °F 93% 29.78 in 3.0 mi SSW 15.0 mph 28.8 mph 0.00 in   Overcast
1:53 PM 42.1 °F 36.1 °F 39.9 °F 92% 29.79 in 7.0 mi SSW 10.4 mph 24.2 mph 0.00 in   Overcast
2:01 PM 42.8 °F 35.8 °F 39.2 °F 87% 29.78 in 10.0 mi SSW 13.8 mph 24.2 mph N/A   Overcast
2:53 PM 41.0 °F 33.9 °F 37.9 °F 89% 29.80 in 3.0 mi SW 12.7 mph 21.9 mph 0.01 in Rain Light Rain
3:53 PM 39.9 °F 32.9 °F 37.9 °F 93% 29.82 in 5.0 mi SW 11.5 mph 18.4 mph 0.03 in Rain Light Rain
4:53 PM 39.0 °F 31.0 °F 36.0 °F 89% 29.88 in 5.0 mi WSW 13.8 mph 18.4 mph 0.03 in Rain Light Rain
5:00 PM 39.2 °F 32.5 °F 35.6 °F 87% 29.88 in 6.0 mi SW 10.4 mph 18.4 mph 0.00 in Rain Light Rain
5:08 PM 39.2 °F 32.5 °F 35.6 °F 87% 29.89 in 6.0 mi West 10.4 mph 18.4 mph 0.00 in Rain Light Rain
5:53 PM 37.9 °F 30.5 °F 35.1 °F 89% 29.94 in 3.0 mi West 11.5 mph 20.7 mph 0.00 in Rain Light Rain
6:53 PM 37.9 °F 30.5 °F 36.0 °F 93% 30.01 in 10.0 mi NNW 11.5 mph 23.0 mph 0.01 in   Overcast
7:53 PM 39.0 °F 32.8 °F 36.0 °F 89% 30.08 in 10.0 mi NNW 9.2 mph 18.4 mph N/A   Overcast
8:53 PM 39.9 °F 31.8 °F 35.1 °F 83% 30.14 in 10.0 mi NNW 15.0 mph 27.6 mph N/A   Mostly Cloudy
9:17 PM 39.2 °F 32.0 °F 33.8 °F 81% 30.15 in 10.0 mi NNW 11.5 mph 25.3 mph N/A   Clear
9:53 PM 39.0 °F 31.8 °F 33.1 °F 79% 30.19 in 10.0 mi NNW 11.5 mph 19.6 mph N/A   Clear
10:53 PM 37.9 °F 31.5 °F 32.0 °F 79% 30.24 in 10.0 mi NNW 9.2 mph 18.4 mph N/A   Clear
11:53 PM 37.0 °F 32.4 °F 30.9 °F 79% 30.27 in 10.0 mi Variable 5.8 mph - N/A   Clear